Regional Weather Roundup
Issued by NWS

Home | Current Version | Previous Version | Text Only | Print | Product List | Glossary On
Versions: 1 2 3 4 5 6 7 8 9 10 11 12 13 14 15 16 17 18 19 20 21 22 23 24 25 26 27 28 29 30 31 32 33 34 35 36 37 38 39 40 41 42 43 44 45 46 47 48 49 50
000
ASUS43 KTOP 191808
RWRKS

WEATHER ROUNDUP FOR KANSAS
NATIONAL WEATHER SERVICE GOODLAND KS
100 PM CDT SAT AUG 19 2017

NOTE:  "FAIR" INDICATES FEW OR NO CLOUDS BELOW 12,000 FEET WITH NO
SIGNIFICANT WEATHER AND/OR OBSTRUCTIONS TO VISIBILITY.

KSZ001>006-013>018-027>032-041>047-191900-
NORTHWEST KANSAS

CITY           SKY/WX    TMP DP  RH WIND       PRES   REMARKS
GOODLAND       SUNNY     89  66  46 S20       29.98F
6HR MIN TEMP:  64; 6HR MAX TEMP:  89;

HAYS           SUNNY     93  67  42 SE13      29.94F HX  96
HILL CITY      SUNNY     94  67  41 S10       29.95F HX  97
6HR MIN TEMP:  60; 6HR MAX TEMP:  94;

RUSSELL        SUNNY     92  67  43 SE5       29.94F HX  95
6HR MIN TEMP:  63; 6HR MAX TEMP:  93;

$$

KSZ061>065-074>080-084>089-191900-
SOUTHWEST KANSAS

CITY           SKY/WX    TMP DP  RH WIND       PRES   REMARKS
DODGE CITY     SUNNY     96  63  33 S12       29.99F HX  97
6HR MIN TEMP:  64; 6HR MAX TEMP:  96;

ELKHART          N/A     88  66  48 S10         N/A
GARDEN CITY    SUNNY     91  66  43 S17       30.00F
6HR MIN TEMP:  61; 6HR MAX TEMP:  91;

GREAT BEND     SUNNY     91  70  49 S9        29.96F HX  96
LIBERAL        SUNNY     88  71  57 SW13      30.03F
PRATT          MOSUNNY   93  62  35 CALM      29.97F
6HR MIN TEMP:  64; 6HR MAX TEMP:  94;

$$

KSZ066>073-081>083-090>101-191900-
SOUTHEAST KANSAS

CITY           SKY/WX    TMP DP  RH WIND       PRES   REMARKS
CHANUTE        SUNNY     91  77  63 VRB6      29.96F HX 104
6HR MIN TEMP:  70; 6HR MAX TEMP:  92;

COFFEYVILLE    SUNNY     91  78  65 SW8       29.95F HX 106
6HR MIN TEMP:  73; 6HR MAX TEMP:  92;

HUTCHINSON     SUNNY     94  69  44 VRB3      29.95F HX  99
6HR MIN TEMP:  69; 6HR MAX TEMP:  94;

MEDICINE LODGE   N/A     93  71  48 SE7       29.95F HX 100
NEWTON         SUNNY     92  73  53 CALM      29.97F HX 100
PARSONS        SUNNY     91  77  63 VRB6      29.97F HX 104
6HR MIN TEMP:  74; 6HR MAX TEMP:  91; 6HR PCP:  0.03;

WICHITA INTL   MOSUNNY   94  74  52 SE5       29.94F HX 104
6HR MIN TEMP:  71; 6HR MAX TEMP:  94;

WICHITA JABRA  SUNNY     91  75  59 S9        29.95F HX 101
6HR MIN TEMP:  70; 6HR MAX TEMP:  92;

WICHITA MCCONL SUNNY     92  73  52 SW8       29.95F HX 100
WINFIELD       SUNNY     91  78  65 S3        29.96F HX 106
6HR MIN TEMP:  70; 6HR MAX TEMP:  91;

$$

KSZ007>012-019>026-033>040-048>060-102>105-191900-
NORTHEAST KANSAS

CITY           SKY/WX    TMP DP  RH WIND       PRES   REMARKS
CONCORDIA      SUNNY     88  72  58 SE8       29.95F
6HR MIN TEMP:  61; 6HR MAX TEMP:  88;

EMPORIA        SUNNY     87  72  60 NE9       29.97F
6HR MIN TEMP:  67; 6HR MAX TEMP:  87;

LAWRENCE       SUNNY     88  69  53 E5        29.97F
6HR MIN TEMP:  63; 6HR MAX TEMP:  88;

MANHATTAN      SUNNY     88  72  58 E8        29.95F
6HR MIN TEMP:  62; 6HR MAX TEMP:  88;

MARYSVILLE     SUNNY     90  61  37 SE6       29.96F
OLATHE IND     SUNNY     88  66  48 CALM      29.98F
6HR MIN TEMP:  66; 6HR MAX TEMP:  88;

OLATHE EXE     SUNNY     87  68  52 CALM      29.98F
6HR MIN TEMP:  67; 6HR MAX TEMP:  87;

SALINA         SUNNY     93  68  43 E7        29.95F HX  97
6HR MIN TEMP:  68; 6HR MAX TEMP:  93;

TOPEKA BILLARD SUNNY     89  69  51 E6        29.96F
6HR MIN TEMP:  63; 6HR MAX TEMP:  89;

TOPEKA FORBES  SUNNY     90  71  53 E6        29.97F HX  96
6HR MIN TEMP:  66; 6HR MAX TEMP:  90;

$$




USA.gov is the U.S. government's official web portal to all federal, state and local government web resources and services.